This is the latest recevied weather packets stored in our database for station/object KK7ISX. If no packets are shown the sender has not sent any weather packets the latest 10 day(s).
| Time | Temp. | Humidity | Pressure | Rain* | Wind** | Luminosity | Snow |
|---|---|---|---|---|---|---|---|
| 1777502857 | 20° C | 36% | 1019.1 hPa | 0 mm | - | 481 W/m² | - |
| 1777502554 | 19.44° C | 37% | 1019 hPa | 0 mm | - | 493 W/m² | - |
| 1777502251 | 19.44° C | 36% | 1019.4 hPa | 0 mm | - | 512 W/m² | - |
| 1777501948 | 19.44° C | 36% | 1019.1 hPa | 0 mm | - | 179 W/m² | - |
| 1777501645 | 19.44° C | 35% | 1019.1 hPa | 0 mm | - | 606 W/m² | - |
| 1777501342 | 18.89° C | 35% | 1019.4 hPa | 0 mm | - | 598 W/m² | - |
| 1777501040 | 18.89° C | 35% | 1019.5 hPa | 0 mm | - | 188 W/m² | - |
| 1777500737 | 18.33° C | 37% | 1019.4 hPa | 0 mm | - | 489 W/m² | - |
| 1777500434 | 18.33° C | 37% | 1019.4 hPa | 0 mm | - | 392 W/m² | - |
| 1777500130 | 18.33° C | 37% | 1019.5 hPa | 0 mm | - | 155 W/m² | - |
| 1777499827 | 18.33° C | 38% | 1019.2 hPa | 0 mm | - | 114 W/m² | - |
| 1777499523 | 18.89° C | 37% | 1019.1 hPa | 0 mm | - | 112 W/m² | - |
| 1777499221 | 19.44° C | 37% | 1019.2 hPa | 0 mm | - | 123 W/m² | - |
| 1777498918 | 18.33° C | 37% | 1019.4 hPa | 0 mm | - | 656 W/m² | - |
| 1777498615 | 19.44° C | 34% | 1019.7 hPa | 0 mm | - | 184 W/m² | - |
| 1777498310 | 18.89° C | 34% | 1019.6 hPa | 0 mm | - | 706 W/m² | - |
| 1777498009 | 18.33° C | 36% | 1019.5 hPa | 0 mm | - | 709 W/m² | - |
| 1777497705 | 19.44° C | 35% | 1019.7 hPa | 0 mm | - | 746 W/m² | - |
| 1777497402 | 18.89° C | 36% | 1019.5 hPa | 0 mm | - | 294 W/m² | - |
| 1777497098 | 20° C | 34% | 1019.5 hPa | 0 mm | - | 175 W/m² | - |
| 1777496795 | 20° C | 36% | 1019.7 hPa | 0 mm | - | 799 W/m² | - |
| 1777496491 | 18.89° C | 35% | 1019.7 hPa | 0 mm | - | 790 W/m² | - |
| 1777496188 | 19.44° C | 35% | 1019.6 hPa | 0 mm | - | 760 W/m² | - |
| 1777495884 | 20° C | 36% | 1019.7 hPa | 0 mm | - | 742 W/m² | - |
| 1777495580 | 18.89° C | 34% | 1019.9 hPa | 0 mm | - | 735 W/m² | - |
* Rain latest hour (hover to see other rain measurements)
** Current wind speed in m/s (hover to see current wind gust speed)